Location: Chavannes
(47.1090°N, 0.2226°W)
Time: 14:57:23
(UTC+00:00)

ATLAS 3B R/B - Pass Details

Date: 16 October 2021
Orbit: 989 x 1206 km, 63.8° (Epoch: 25 November)

Event Time Altitude Azimuth Distance (km) Brightness Sun altitude
Rises 18:24:48 0° 224° (SW) 3,705 6.2 -13.2°
Reaches altitude 10° 18:27:21 10° 226° (SW) 2,774 5.5 -13.7°
Maximum altitude 18:33:52 74° 312° (NW) 1,076 2.8 -14.8°
Drops below altitude 10° 18:40:44 10° 37° (NE) 2,916 4.7 -15.9°
Enters shadow 18:42:52 - 39° (NE) 3,688 5.2 -16.3°
